Regional Weather Roundup
Issued by NWS

Home | Current Version | Previous Version | Graphics & Text | Print | Product List | Glossary On
Versions: 1 2 3 4 5 6 7 8 9 10 11 12 13 14 15 16 17 18 19 20 21 22 23 24 25 26 27 28 29 30 31 32 33 34 35 36 37 38 39 40 41 42 43 44 45 46 47 48 49 50
000
ASUS45 KBOI 221310
RWRID
WEATHER ROUNDUP FOR IDAHO
NATIONAL WEATHER SERVICE BOISE ID
700 AM MDT MON SEP 22 2014

NOTE: "FAIR" INDICATES FEW OR NO CLOUDS BELOW 12000 FEET
WITH NO SIGNIFICANT WEATHER AND/OR OBSTRUCTIONS TO VISIBILITY

IDZ012-014-221400-
SOUTHWEST IDAHO


CITY           SKY/WX    TMP DP  RH WIND       PRES   REMARKS
BOISE          CLOUDY    64  56  75 CALM      30.04S
CALDWELL       CLOUDY    63  52  67 S6        30.06R
MOUNTAIN HOME  MOCLDY    58  58 100 SE6       30.05S
$$

IDZ016-017-221400-
SOUTHCENTRAL IDAHO


CITY           SKY/WX    TMP DP  RH WIND       PRES   REMARKS
BURLEY         PTCLDY    53  50  89 SE6       30.11R
JEROME         PTCLDY    52  48  86 SE5       30.10F
TWIN FALLS     PTCLDY    56  47  71 S9        30.10S
$$

IDZ019>023-221400-
SOUTHEAST IDAHO


CITY           SKY/WX    TMP DP  RH WIND       PRES   REMARKS
IDAHO FALLS    CLOUDY    53  52  96 CALM      30.15S
POCATELLO      MOCLDY    57  55  93 CALM      30.14S
REXBURG        FOG       53  52  96 N3        30.15F VSB 1/2
$$

IDZ006-010-011-018-031-032-221400-
CENTRAL IDAHO MOUNTAINS


CITY           SKY/WX    TMP DP  RH WIND       PRES   REMARKS
MCCALL         CLOUDY    54  49  83 NE3       30.12R
HAILEY         CLOUDY    54  54 100 NW7       30.17F
STANLEY          N/A     50  49  96 N5        30.20R
SALMON         MOCLDY    61  52  72 SW7       30.06S
CHALLIS        LGT RAIN  54  54 100 S5        30.13F
$$

IDZ002-004-006-007-026-221400-
NORTHERN IDAHO


CITY           SKY/WX    TMP DP  RH WIND       PRES   REMARKS
LEWISTON       CLOUDY    63  41  44 SE6       29.90R
LOWELL           N/A     54  51  90 NW3       29.98R
COEUR D`ALENE  PTCLDY    52  45  76 E5        29.92S
MULLAN PASS    PTCLDY    59  39  47 NW6       30.10S
$$



USA.gov is the U.S. government's official web portal to all federal, state and local government web resources and services.